User: anonymous
Location: Keeble Observatory
(37.7625°N, 77.4755°W)
Time: 15:52:40
(UTC-04:00)
Language:

Cosmos 1484 Rocket - Orbit

View from above orbital plane
View from above orbital plane
View from above satellite
View from above satellite

Ground track
Ground track

The orbit data is extracted from the following two-line orbital elements,

1 14208U 83075B   14261.27173609  .00002191  00000-0  14675-3 0  1156
2 14208 097.4171 294.8117 0041629 345.9468 014.0598 15.07228056696227
Epoch (UTC): 18 September 2014 06:31:17
Eccentricity: 0.0041629
inclination: 97.4171°
perigee height: 516 km
apogee height: 573 km
right ascension of ascending node: 294.8117°
argument of perigee: 345.9468°
revolutions per day: 15.07228056
mean anomaly at epoch: 14.0598°
orbit number at epoch: 69622

The dashed part of the orbit path shows where the satellite is in the earth's shadow,  

DLR